Location: Bernay
(48.6766°N, 2.9386°E)
Time: 21:53:09
(UTC+00:00)

NOSS 3-4 (A) - Pass Details

Date: 12 January 2026
Orbit: 769 x 1442 km, 63.4° (Epoch: 10 January)

Event Time Altitude Azimuth Distance (km) Brightness Sun altitude
Rises 19:21:32 0° 235° (SW) 3,241 7.0 -29.9°
Reaches altitude 10° 19:23:53 10° 239° (WSW) 2,341 6.2 -30.3°
Enters shadow 19:28:55 57° 309° (NW) 976 3.6 -31.1°
